DW9330 Weather Reports


time (UTC)temp
F
wind
direction
speed
knots
gust
knots
rain 1hr
in
rain 24hr
in
rain mn
in
humidity
%
barometer
mb
20260504050523 46 227 0.0 2.6 0.00 0.00 0.00 61 1015.1
20260504050022 46 221 0.0 1.7 0.00 0.00 0.00 62 1015.1
20260504045521 46 360 0.9 2.6 0.00 0.00 0.00 63 1015.2
20260504045023 45 222 0.0 1.7 0.00 0.00 0.00 63 1015.1
20260504044532 45 360 0.0 2.6 0.00 0.00 0.00 64 1015.1
20260504044021 45 360 0.0 2.6 0.00 0.00 0.00 65 1015.1
20260504043520 45 360 0.0 0.9 0.00 0.00 0.00 64 1015.1
20260504043029 46 360 0.0 0.0 0.00 0.00 0.00 64 1015.1
20260504042519 46 223 0.0 0.9 0.00 0.00 0.00 63 1015.1
20260504042021 46 224 0.0 0.9 0.00 0.00 0.00 63 1015.1
20260504041518 46 224 0.0 0.9 0.00 0.00 0.00 62 1015.2
20260504041017 46 224 0.0 0.9 0.00 0.00 0.00 63 1015.1
20260504040517 46 224 0.0 0.0 0.00 0.00 0.00 64 1015.0
20260504040019 46 223 0.0 0.0 0.00 0.00 0.00 62 1015.0
20260504035515 47 224 0.0 0.9 0.00 0.00 0.00 62 1014.9
20260504035015 47 224 0.0 3.5 0.00 0.00 0.00 61 1014.9
20260504034515 47 224 0.0 3.5 0.00 0.00 0.00 61 1014.9
20260504034014 47 228 0.0 0.9 0.00 0.00 0.00 62 1014.9
20260504033514 47 228 0.0 0.9 0.00 0.00 0.00 61 1014.9
20260504033015 47 229 0.0 2.6 0.00 0.00 0.00 60 1014.9
20260504032514 47 229 0.0 2.6 0.00 0.00 0.00 60 1014.9
20260504032015 47 230 0.0 2.6 0.00 0.00 0.00 59 1014.9
20260504031517 47 245 0.0 0.9 0.00 0.00 0.00 60 1014.8
20260504031013 48 245 0.0 0.9 0.00 0.00 0.00 61 1014.7
20260504030513 48 245 0.0 0.9 0.00 0.00 0.00 60 1014.7
20260504030014 48 245 0.0 1.7 0.00 0.00 0.00 60 1014.7
20260504025515 47 246 0.0 1.7 0.00 0.00 0.00 60 1014.7
20260504025014 47 245 0.0 1.7 0.00 0.00 0.00 60 1014.7
20260504024512 47 246 0.0 1.7 0.00 0.00 0.00 61 1014.8
20260504024013 47 245 0.0 0.0 0.00 0.00 0.00 61 1014.7
20260504023513 47 360 0.0 0.9 0.00 0.00 0.00 61 1014.6
20260504023013 47 245 0.0 0.9 0.00 0.00 0.00 60 1014.6
20260504022514 48 246 0.0 0.0 0.00 0.00 0.00 59 1014.6
20260504022013 48 246 0.0 1.7 0.00 0.00 0.00 58 1014.5
20260504021514 48 246 0.0 1.7 0.00 0.00 0.00 58 1014.6
20260504021012 48 246 0.0 1.7 0.00 0.00 0.00 58 1014.6
20260504020512 48 246 0.0 1.7 0.00 0.00 0.00 59 1014.6
20260504020012 48 246 0.0 0.0 0.00 0.00 0.00 58 1014.7
20260504015511 48 246 0.0 0.9 0.00 0.00 0.00 58 1014.6
20260504015011 48 246 0.0 0.9 0.00 0.00 0.00 57 1014.6
20260504014511 48 246 0.0 0.9 0.00 0.00 0.00 57 1014.6
20260504014012 48 246 0.0 1.7 0.00 0.00 0.00 57 1014.6
20260504013513 48 360 0.0 0.9 0.00 0.00 0.00 56 1014.5
20260504013017 48 360 0.0 0.9 0.00 0.00 0.00 56 1014.5
20260504012511 48 360 0.0 0.0 0.00 0.00 0.00 56 1014.4
20260504012010 49 245 0.0 0.0 0.00 0.00 0.00 55 1014.4
20260504011510 49 244 0.0 0.0 0.00 0.00 0.00 55 1014.3
20260504011012 49 243 0.0 0.0 0.00 0.00 0.00 54 1014.2
20260504010510 50 243 0.0 0.0 0.00 0.00 0.00 55 1014.2
20260504010009 50 244 0.0 0.0 0.00 0.00 0.00 53 1014.3
20260504005509 50 243 0.0 0.0 0.00 0.00 0.00 52 1014.2
20260504005009 50 243 0.0 0.0 0.00 0.00 0.00 52 1014.2
20260504004516 51 360 0.0 0.0 0.00 0.00 0.00 52 1014.2
20260504004009 51 360 0.0 0.0 0.00 0.00 0.00 51 1014.2
20260504003508 52 244 0.0 0.0 0.00 0.00 0.00 50 1014.1
20260504003008 52 244 0.0 0.0 0.00 0.00 0.00 49 1014.0
20260504002509 53 244 0.0 0.0 0.00 0.00 0.00 48 1014.0
20260504002009 53 243 0.0 0.0 0.00 0.00 0.00 47 1013.9
20260504001509 54 241 0.0 0.0 0.00 0.00 0.00 45 1013.9
20260504001009 54 240 0.0 0.9 0.00 0.00 0.00 45 1013.8
20260504000508 55 242 0.0 0.9 0.00 0.00 0.00 43 1013.7
20260504000008 55 242 0.0 0.9 0.00 0.00 0.00 44 1013.7
20260503235507 56 242 0.0 0.9 0.00 0.00 0.00 41 1013.7
20260503235007 56 242 0.0 0.9 0.00 0.00 0.00 40 1013.6
20260503234513 56 240 0.0 0.9 0.00 0.00 0.00 40 1013.5
20260503234007 57 241 0.0 1.7 0.00 0.00 0.00 39 1013.5
20260503233508 57 240 0.0 2.6 0.00 0.00 0.00 40 1013.4
20260503233008 57 246 0.0 2.6 0.00 0.00 0.00 39 1013.3
20260503232507 57 248 0.0 2.6 0.00 0.00 0.00 36 1013.3
20260503232007 58 249 0.9 2.6 0.00 0.00 0.00 36 1013.3
20260503231507 58 248 0.9 2.6 0.00 0.00 0.00 37 1013.3
20260503231007 58 244 0.0 2.6 0.00 0.00 0.00 38 1013.3
20260503230507 58 245 0.0 2.6 0.00 0.00 0.00 38 1013.3
20260503230006 58 248 0.0 2.6 0.00 0.00 0.00 37 1013.3
20260503225506 59 237 0.0 2.6 0.00 0.00 0.00 36 1013.3
20260503225007 59 238 0.0 1.7 0.00 0.00 0.00 35 1013.4
20260503224506 59 238 0.0 2.6 0.00 0.00 0.00 36 1013.4
20260503224006 59 238 0.0 4.3 0.00 0.00 0.00 35 1013.3
20260503223506 59 234 0.9 4.3 0.00 0.00 0.00 36 1013.4
20260503223005 59 273 0.9 3.5 0.00 0.00 0.00 36 1013.3
20260503222505 59 225 0.9 5.2 0.00 0.00 0.00 35 1013.3
20260503222005 59 275 0.9 5.2 0.00 0.00 0.00 36 1013.3
20260503221506 59 231 0.9 5.2 0.00 0.00 0.00 36 1013.4
20260503221005 59 270 1.7 5.2 0.00 0.00 0.00 35 1013.3
20260503220509 59 232 0.9 4.3 0.00 0.00 0.00 36 1013.3
20260503220004 60 211 0.0 2.6 0.00 0.00 0.00 34 1013.4
20260503215504 59 208 0.9 2.6 0.00 0.00 0.00 36 1013.4
20260503215003 59 207 0.0 6.1 0.00 0.00 0.00 36 1013.5
20260503214515 60 241 1.7 6.1 0.00 0.00 0.00 35 1013.5
20260503214006 60 244 0.9 6.1 0.00 0.00 0.00 37 1013.4
20260503213503 60 182 1.7 6.1 0.00 0.00 0.00 35 1013.3
20260503213005 60 257 0.9 5.2 0.00 0.00 0.00 34 1013.4
20260503212506 60 307 0.9 5.2 0.00 0.00 0.00 34 1013.4
20260503212004 60 232 0.0 3.5 0.00 0.00 0.00 35 1013.3
20260503211504 60 268 1.7 7.8 0.00 0.00 0.00 34 1013.3
20260503211003 60 254 2.6 7.8 0.00 0.00 0.00 35 1013.3
20260503210503 60 360 0.9 5.2 0.00 0.00 0.00 36 1013.3
20260503210002 59 360 0.9 6.1 0.00 0.00 0.00 38 1013.3
20260503205504 59 360 0.9 4.3 0.00 0.00 0.00 38 1013.4
20260503205002 60 360 0.9 5.2 0.00 0.00 0.00 36 1013.4
20260503204502 60 272 0.9 5.2 0.00 0.00 0.00 39 1013.4
20260503204002 60 317 0.9 3.5 0.00 0.00 0.00 39 1013.3
20260503203502 60 56 0.9 5.2 0.00 0.00 0.00 37 1013.3
20260503203004 60 360 0.9 6.1 0.00 0.00 0.00 34 1013.4
20260503202502 60 13 1.7 7.0 0.00 0.00 0.00 34 1013.4
20260503202002 60 102 0.9 7.0 0.00 0.00 0.00 36 1013.5
20260503201502 60 46 0.9 7.0 0.00 0.00 0.00 36 1013.5
20260503201004 60 130 1.7 7.8 0.00 0.00 0.00 35 1013.4
20260503200502 60 33 1.7 7.0 0.00 0.00 0.00 36 1013.5
20260503200001 59 277 1.7 11.3 0.00 0.00 0.00 34 1013.7
20260503195500 59 30 3.5 11.3 0.00 0.00 0.00 33 1013.7
20260503195101 60 360 0.9 4.3 0.00 0.00 0.00 33 1013.8
20260503194605 61 280 1.7 6.1 0.00 0.00 0.00 33 1013.9
20260503194100 61 24 1.7 6.1 0.00 0.00 0.00 35 1013.9
20260503193600 61 283 1.7 4.3 0.00 0.00 0.00 38 1014.1
20260503193105 61 180 0.9 4.3 0.00 0.00 0.00 35 1014.2
20260503192558 61 360 0.9 5.2 0.00 0.00 0.00 38 1014.1
20260503192058 60 360 0.0 6.1 0.00 0.00 0.00 33 1014.2
20260503191606 60 360 1.7 8.7 0.00 0.00 0.00 38 1014.3
20260503191057 59 360 0.9 8.7 0.00 0.00 0.00 39 1014.3
20260503190557 58 360 1.7 5.2 0.00 0.00 0.00 37 1014.3
20260503185556 58 360 2.6 7.0 0.00 0.00 0.00 34 1014.5
20260503185056 58 360 0.9 7.0 0.00 0.00 0.00 33 1014.6
20260503184618 59 360 1.7 7.0 0.00 0.00 0.00 37 1014.4
20260503184056 59 360 1.7 5.2 0.00 0.00 0.00 33 1014.6
20260503183556 59 360 1.7 6.1 0.00 0.00 0.00 34 1014.7
20260503183100 59 360 0.9 6.1 0.00 0.00 0.00 39 1014.6
20260503182555 59 360 1.7 7.0 0.00 0.00 0.00 37 1014.9
20260503182055 59 35 2.6 7.0 0.00 0.00 0.00 41 1014.8
20260503181612 59 47 1.7 7.0 0.00 0.00 0.00 43 1014.8
20260503181057 58 360 0.9 6.1 0.00 0.00 0.00 43 1014.8
20260503180554 58 232 1.7 5.2 0.00 0.00 0.00 40 1014.9
20260503180112 59 261 1.7 4.3 0.00 0.00 0.00 41 1014.9
20260503175551 58 267 0.9 5.2 0.00 0.00 0.00 40 1014.8
20260503175051 58 252 0.9 6.1 0.00 0.00 0.00 40 1014.9
20260503174557 57 344 1.7 4.3 0.00 0.00 0.00 38 1014.9
20260503174050 58 54 1.7 6.1 0.00 0.00 0.00 45 1014.9
20260503173549 57 239 2.6 6.1 0.00 0.00 0.00 45 1015.0
20260503173100 56 360 0.9 4.3 0.00 0.00 0.00 41 1015.1
20260503172551 56 282 0.9 4.3 0.00 0.00 0.00 38 1015.2
20260503172049 56 271 0.9 7.0 0.00 0.00 0.00 38 1015.2
20260503171549 55 257 1.7 7.0 0.00 0.00 0.00 44 1015.2
20260503171048 56 45 2.6 10.4 0.00 0.00 0.00 44 1015.3
20260503170548 56 30 2.6 16.5 0.00 0.00 0.00 43 1015.3
20260503150540 52 26 4.3 7.8 0.00 0.00 0.00 41 1016.0
20260503131027 48 30 2.6 4.3 0.00 0.00 0.00 52 1016.3
20260503130527 48 32 0.9 5.2 0.00 0.00 0.00 55 1016.3
20260503110510 39 203 0.0 1.7 0.00 0.00 0.00 72 1015.5
20260503100114 38 360 0.0 0.9 0.00 0.00 0.00 72 1014.4
20260503081544 43 360 0.0 0.9 0.00 0.00 0.00 64 1013.3
20260503081045 43 360 0.0 1.7 0.00 0.00 0.00 64 1013.4
20260503080545 43 360 0.0 1.7 0.00 0.00 0.00 63 1013.4
20260503072543 42 360 0.0 1.7 0.00 0.00 0.00 70 1013.0
20260503072041 42 360 0.0 1.7 0.00 0.00 0.00 71 1013.1
20260503071544 41 360 0.0 0.9 0.00 0.00 0.00 72 1013.1
20260503071045 41 360 0.0 1.7 0.00 0.00 0.00 72 1013.0
20260503070541 41 360 0.0 1.7 0.00 0.00 0.00 73 1013.0